Meteo Giornale » Osservazioni meteo Italia » Monte Terminillo

ore: 16:55 - Osservazioni Meteo Monte Terminillo
Lat. 42° 28' N Lon. 12° 59' E Alt. 1874 metri s.l.m.

sereno Europe/Rome

0 °C

Sereno

Temp. 24 Ore

0 °C

0 °C

Ovest/Nord-Ovest

13 Km/h

Dew point 0 °C

Umidità 54 %

Visibilità  0 Km

Il sole sorge alle ore 05:30

Il sole tramonta alle ore 20:51

Data e Ora Cielo e Fenomeni T °C DP °C Um. % Pres. hPa Vis. km Vento km/h
Oggi h: 16:55 sereno Sereno 0 0 54 0 0 O/NO 13
Oggi h: 15:55 sereno Sereno 0 0 74 0 0 NO 11.1
Oggi h: 14:55 sereno Sereno 0 0 88 0 0 NO 11.1
Oggi h: 12:55 sereno Sereno 0 0 78 0 0 O/NO 9.3
Oggi h: 11:55 sereno Sereno 0 0 65 0 0 O 5.5
Oggi h: 10:55 sereno Sereno 0 0 69 0 0 O 5.5
Oggi h: 09:55 sereno Sereno 0 0 94 0 0 O/NO 7.4
Oggi h: 08:55 sereno Sereno 0 0 83 0 0 O 13
Oggi h: 07:55 sereno Sereno 0 0 94 0 0 O/NO 13
Oggi h: 06:55 sereno Sereno 0 0 88 0 0 O/NO 18.5
Oggi h: 05:55 sereno Sereno 0 0 93 0 0 NO 18.5
Oggi h: 04:55 sereno Sereno 0 0 94 0 0 O/NO 22.2
Oggi h: 03:55 sereno Sereno 0 0 94 0 0 O/NO 18.5
Oggi h: 02:55 sereno Sereno 0 0 88 0 0 NO 16.7
Oggi h: 01:55 sereno Sereno 0 0 94 0 0 NO 18.5
Oggi h: 00:55 sereno Sereno 0 0 94 0 0 NO 20.3
Ieri h: 23:55 sereno Sereno 0 0 94 0 0 NO 16.7
Ieri h: 22:55 sereno Sereno 0 0 83 0 0 NO 13
Ieri h: 21:55 sereno Sereno 0 0 88 0 0 NO 16.7
Ieri h: 20:55 sereno Sereno 0 0 83 0 0 NO 16.7
Ieri h: 19:55 sereno Sereno 0 0 83 0 0 NO 14.8
Ieri h: 18:55 sereno Sereno 0 0 49 0 0 O 14.8
Ieri h: 17:55 sereno Sereno 0 0 62 0 0 O/NO 11.1